Location: Winter Haven
(28.0220°N, 81.7330°W)
Time: 22:26:23
(UTC-04:00)

Amateur Radio Satellites - All Passes

Search period start: 26 May 2017 21:56
Search period end: 27 May 2017 21:56
Location: Winter Haven, 28.0220°N, 81.7330°W

Satellite Date Start Highest point End Downlink Frequencies (MHz)
Time Altitude Azimuth
DELFI C3 26 May 21:58:32 22:02:04 31° 74° (ENE) 22:05:36 145.870
EO-88 26 May 22:01:03 22:03:49 21° 73° (ENE) 22:06:36 145.990 - 145.960
UWE-3 26 May 22:19:33 22:20:25 11° 266° (W) 22:21:17 435.000/436.395/437.385
UNISAT 6 26 May 22:41:12 22:45:04 26° 97° (E) 22:48:56 437.425
PRISM 26 May 22:46:22 22:50:04 34° 99° (E) 22:53:46 437.425
FO-29 26 May 22:47:23 22:53:43 40° 100° (E) 23:00:39 435.910
Oscar 11 26 May 22:50:31 22:52:23 13° 266° (W) 22:54:15 .
M-CUBED/EXP-1 PRIME 26 May 22:50:37 22:52:33 15° 292° (WNW) 22:54:30 437.505
SO-50 26 May 23:05:08 23:09:34 48° 299° (WNW) 23:13:59 436.795
ESTCUBE 1 26 May 23:07:21 23:08:42 11° 68° (ENE) 23:10:03 437.505/2401.250
DELFI C3 26 May 23:35:06 23:36:50 12° 265° (W) 23:38:34 145.870
EO-88 26 May 23:35:12 23:37:23 15° 264° (W) 23:39:35 145.990 - 145.960
TIGRISAT 26 May 23:45:21 23:49:54 57° 284° (WNW) 23:54:29 435.000
VELOX 1 27 May 00:02:32 00:03:42 11° 68° (ENE) 00:04:51 145.980
QB50P2 27 May 00:07:53 00:09:59 13° 95° (E) 00:12:05 145.880/145.840
AIST 2D 27 May 00:11:37 00:14:45 29° 98° (E) 00:17:51 435.315
LO-87 27 May 00:16:26 00:19:47 39° 261° (W) 00:23:07 145.935 - 145.965
UNISAT 6 27 May 00:17:59 00:21:33 22° 288° (WNW) 00:25:08 437.425
PRISM 27 May 00:23:20 00:24:58 12° 291° (WNW) 00:26:37 437.425
FO-29 27 May 00:32:47 00:38:29 30° 289° (WNW) 00:44:42 435.910
ESTCUBE 1 27 May 00:40:37 00:45:00 49° 260° (W) 00:49:24 437.505/2401.250
EO-79 27 May 00:43:19 00:47:14 35° 99° (E) 00:51:08 145.935-145.965
YUBILEINY 27 May 00:45:14 00:51:44 24° 84° (E) 00:58:16 435.215
JUGNU 27 May 01:27:36 01:30:25 14° 160° (SSE) 01:33:15 437.505
SPROUT 27 May 01:27:40 01:31:49 57° 259° (W) 01:36:00 437.525
NANOSAT C BR1 27 May 01:28:08 01:32:20 64° 284° (WNW) 01:36:32 145.865
50 SAT 27 May 01:28:09 01:31:34 66° 77° (ENE) 01:35:00 437.505
POLYITAN 1 27 May 01:33:00 01:37:08 49° 285° (WNW) 01:41:16 437.675
VELOX 1 27 May 01:35:25 01:39:40 47° 260° (W) 01:43:56 145.980
DUCHIFAT 1 27 May 01:38:46 01:42:53 52° 285° (WNW) 01:47:00 145.980
QB50P2 27 May 01:41:56 01:45:47 34° 286° (WNW) 01:49:38 145.880/145.840
AIST 2D 27 May 01:46:56 01:47:36 10° 289° (WNW) 01:48:15 435.315
RS-15 27 May 01:47:51 01:59:01 49° 108° (ESE) 02:10:32 29.354- 29.394
BUGSAT 1 27 May 01:55:42 01:59:50 63° 101° (ESE) 02:03:59 437.445
UKube-1 27 May 02:01:37 02:05:53 71° 76° (ENE) 02:10:11 .
DX 1 27 May 02:09:57 02:14:13 57° 259° (W) 02:18:30 434.975-435.025
EO-79 27 May 02:20:33 02:22:37 13° 290° (WNW) 02:24:40 145.935-145.965
Gurwin Techsat 1B 27 May 02:39:03 02:43:48 32° 98° (E) 02:48:30 435.225
YUBILEINY 27 May 02:39:26 02:47:51 54° 279° (W) 02:56:23 435.215
ITUPSAT 1 27 May 02:46:42 02:49:26 15° 68° (ENE) 02:52:11 437.325
Oscar 19 27 May 02:58:28 03:03:37 85° 286° (WNW) 03:08:45 437.125/150
MOZHAYETS 4 27 May 03:01:15 03:01:57 10° 67° (ENE) 03:02:39
JUGNU 27 May 03:13:59 03:18:56 28° 168° (SSE) 03:23:55 437.505
BEESAT 27 May 03:18:12 03:22:32 36° 73° (ENE) 03:26:53 436.000
O/OREOS (USA 219) 27 May 03:46:52 03:50:55 31° 103° (ESE) 03:54:59 437.305
Tancredo 1 27 May 03:51:09 03:53:46 25° 43° (NE) 03:56:20 437.200
SRMSAT 27 May 03:56:30 03:58:53 12° 160° (SSE) 04:01:18 437.500
RS-15 27 May 04:00:19 04:11:29 43° 305° (NW) 04:23:02 29.354- 29.394
ITAMSAT 1 27 May 04:01:30 04:05:47 26° 98° (E) 04:10:03 435.822/435.867
AO-7 27 May 04:15:21 04:23:00 39° 101° (E) 04:30:37 .
Gurwin Techsat 1B 27 May 04:19:25 04:23:28 23° 290° (WNW) 04:27:31 435.225
ITUPSAT 1 27 May 04:22:27 04:26:53 39° 261° (W) 04:31:20 437.325
ISS 27 May 04:26:00 04:29:05 38° 44° (NE) 04:32:10 437.550
MOZHAYETS 4 27 May 04:34:04 04:38:33 54° 260° (W) 04:43:04
AO-85 27 May 04:42:54 04:47:15 78° 114° (ESE) 04:51:20 145.980
PCSat 27 May 04:48:08 04:52:27 24° 59° (ENE) 04:56:45 145.827
BEESAT 27 May 04:57:30 05:00:19 16° 264° (W) 05:03:10 436.000
JUGNU 27 May 05:02:07 05:07:34 38° 178° (S) 05:13:03 437.505
BEESAT 2 27 May 05:16:48 05:18:57 14° 108° (ESE) 05:21:07 435.950
CUBESAT XI-V 27 May 05:20:57 05:25:39 76° 77° (ENE) 05:30:21 437.345
KKS-1 27 May 05:24:02 05:28:25 70° 76° (ENE) 05:32:50 437.445
O/OREOS (USA 219) 27 May 05:27:17 05:30:18 17° 295° (WNW) 05:33:20 437.305
Tancredo 1 27 May 05:27:32 05:29:18 14° 234° (SW) 05:31:03 437.200
BEESAT 3 27 May 05:33:55 05:37:50 89° 95° (E) 05:41:49 437.485
ITAMSAT 1 27 May 05:40:45 05:45:06 27° 289° (WNW) 05:49:27 435.822/435.867
SRMSAT 27 May 05:42:39 05:47:35 26° 167° (SSE) 05:52:30 437.500
STARS 27 May 05:53:42 05:57:59 60° 76° (ENE) 06:02:17 437.465
DOVE 4 27 May 06:02:21 06:03:25 11° 95° (E) 06:04:29 437.250
ISS 27 May 06:04:30 06:05:15 11° 236° (SW) 06:06:00 437.550
AO-7 27 May 06:08:06 06:15:32 37° 294° (WNW) 06:22:59 .
PCSat 27 May 06:30:58 06:35:49 34° 252° (WSW) 06:40:37 145.827
XW-2D 27 May 06:34:23 06:36:15 13° 95° (E) 06:38:07 145.860 - 145.880
XW-2B 27 May 06:41:49 06:44:15 16° 96° (E) 06:46:41 145.730 - 145.750
JUGNU 27 May 06:50:55 06:56:15 34° 188° (S) 07:01:36 437.505
NUDT-PHONESAT 27 May 06:51:27 06:53:51 16° 96° (E) 06:56:14 437.300
BEESAT 2 27 May 06:52:54 06:56:22 29° 301° (WNW) 06:59:54 435.950
XW-2F 27 May 06:53:29 06:56:32 23° 97° (E) 06:59:34 145.980 - 146.000
XW-2C 27 May 06:54:49 06:58:01 25° 97° (E) 07:01:12 145.795 - 145.815
STRAND 1 27 May 06:58:44 07:00:47 12° 67° (ENE) 07:02:51 437.568
KAITUO 1B 27 May 07:00:12 07:03:11 22° 97° (E) 07:06:10 145.475/437.950
HO-68 27 May 07:17:32 07:18:50 10° 93° (E) 07:20:09 435.675
SRMSAT 27 May 07:30:53 07:36:23 37° 176° (S) 07:41:51 437.500
LilacSat-2 27 May 07:33:00 07:36:52 81° 282° (WNW) 07:40:42 437.200
DOVE 4 27 May 07:37:13 07:41:09 40° 285° (WNW) 07:45:14 437.250
CUTE-I 27 May 07:38:51 07:44:12 76° 102° (ESE) 07:49:32 437.470
SO-50 27 May 07:43:27 07:46:59 22° 57° (ENE) 07:50:32 436.795
CUTE 1.7 + AOD 2 27 May 07:45:04 07:46:49 12° 94° (E) 07:48:34 437.475
XW-2D 27 May 08:07:08 08:10:23 27° 286° (WNW) 08:13:38 145.860 - 145.880
XW-2B 27 May 08:15:19 08:18:19 22° 287° (WNW) 08:21:18 145.730 - 145.750
NO-84 27 May 08:24:26 08:28:49 90° 243° (WSW) 08:33:12 435.350 FM
NUDT-PHONESAT 27 May 08:24:45 08:27:37 21° 287° (WNW) 08:30:29 437.300
CUBEBUG 2 27 May 08:27:22 08:30:57 22° 97° (E) 08:34:34 437.445
XW-2F 27 May 08:28:04 08:30:25 16° 289° (WNW) 08:32:46 145.980 - 146.000
XW-2C 27 May 08:29:48 08:31:55 14° 289° (WNW) 08:34:02 145.795 - 145.815
SEEDS 27 May 08:31:24 08:35:06 30° 98° (E) 08:38:46 437.485
STRAND 1 27 May 08:34:26 08:39:24 55° 259° (W) 08:44:25 437.568
KAITUO 1B 27 May 08:34:37 08:36:57 16° 288° (WNW) 08:39:17 145.475/437.950
UWE-3 27 May 08:37:08 08:39:57 16° 95° (E) 08:42:46 435.000/436.395/437.385
JUGNU 27 May 08:40:34 08:44:50 20° 196° (SSW) 08:49:07 437.505
XW-2A 27 May 08:44:36 08:48:02 73° 101° (E) 08:51:28 145.665 - 145.685
HO-68 27 May 08:59:53 09:07:07 89° 292° (WNW) 09:14:18 435.675
Oscar 11 27 May 09:08:13 09:09:53 12° 94° (E) 09:11:33 .
CUTE 1.7 + AOD 2 27 May 09:18:48 09:22:41 36° 286° (WNW) 09:26:33 437.475
SRMSAT 27 May 09:19:50 09:25:13 35° 187° (S) 09:30:34 437.500
SO-50 27 May 09:23:34 09:27:21 26° 249° (WSW) 09:31:08 436.795
M-CUBED/EXP-1 PRIME 27 May 09:27:50 09:32:06 52° 255° (WSW) 09:36:08 437.505
AAUSAT CUBESAT 2 27 May 09:28:47 09:32:55 74° 102° (ESE) 09:37:00 437.432
PRISM 27 May 09:31:56 09:32:23 10° 69° (ENE) 09:32:51 437.425
AO-73 27 May 09:33:25 09:37:38 36° 98° (E) 09:41:49 145.935
ZACube-1 27 May 09:47:32 09:52:04 62° 100° (E) 09:56:36 437.345
CUBEBUG 2 27 May 10:03:33 10:07:25 26° 287° (WNW) 10:11:19 437.445
NO-84 27 May 10:05:37 10:06:54 11° 322° (NW) 10:08:10 435.350 FM
SEEDS 27 May 10:08:05 10:10:28 15° 289° (WNW) 10:12:50 437.485
UWE-3 27 May 10:12:11 10:16:23 35° 286° (WNW) 10:20:36 435.000/436.395/437.385
TIGRISAT 27 May 10:37:04 10:41:10 50° 75° (ENE) 10:45:19 435.000
FO-29 27 May 10:38:13 10:43:19 58° 75° (ENE) 10:48:26 435.910
Oscar 11 27 May 10:42:03 10:46:05 39° 285° (WNW) 10:50:06 .
HO-68 27 May 10:51:11 10:53:49 12° 299° (WNW) 10:56:27 435.675
RS-15 27 May 10:59:23 11:09:34 30° 49° (NE) 11:19:16 29.354- 29.394
PRISM 27 May 11:03:16 11:07:13 43° 260° (W) 11:11:10 437.425
UNISAT 6 27 May 11:08:57 11:13:06 54° 260° (W) 11:17:20 437.425
EO-88 27 May 11:09:01 11:12:42 75° 100° (E) 11:16:21 145.990 - 145.960
SRMSAT 27 May 11:09:30 11:13:58 22° 196° (SSW) 11:18:24 437.500
AO-73 27 May 11:10:50 11:13:29 15° 290° (WNW) 11:16:08 145.935
DELFI C3 27 May 11:16:27 11:20:18 56° 284° (WNW) 11:24:07 145.870
EO-79 27 May 11:31:32 11:32:36 11° 69° (ENE) 11:33:40 145.935-145.965
LO-87 27 May 11:50:18 11:53:12 23° 98° (E) 11:56:07 145.935 - 145.965
AIST 2D 27 May 12:11:28 12:14:58 88° 263° (W) 12:18:30 435.315
NANOSAT C BR1 27 May 12:13:17 12:17:04 35° 74° (ENE) 12:20:52 145.865
POLYITAN 1 27 May 12:18:20 12:22:20 46° 75° (ENE) 12:26:21 437.675
DUCHIFAT 1 27 May 12:23:25 12:27:18 41° 75° (ENE) 12:31:14 145.980
QB50P2 27 May 12:26:53 12:31:02 68° 76° (ENE) 12:35:12 145.880/145.840
ESTCUBE 1 27 May 12:39:48 12:44:15 60° 101° (E) 12:48:39 437.505/2401.250
BUGSAT 1 27 May 12:39:53 12:42:23 16° 71° (ENE) 12:44:55 437.445
YUBILEINY 27 May 12:57:58 13:06:38 57° 82° (E) 13:15:13 435.215
EO-79 27 May 13:03:58 13:07:54 41° 260° (W) 13:11:53 145.935-145.965
RS-15 27 May 13:10:59 13:22:52 69° 249° (WSW) 13:34:05 29.354- 29.394
SPROUT 27 May 13:20:09 13:24:09 39° 99° (E) 13:28:10 437.525
LO-87 27 May 13:24:43 13:26:22 13° 289° (WNW) 13:28:01 145.935 - 145.965
VELOX 1 27 May 13:32:03 13:36:20 54° 100° (E) 13:40:37 145.980
NANOSAT C BR1 27 May 13:51:06 13:52:48 12° 265° (W) 13:54:31 145.865
Gurwin Techsat 1B 27 May 13:53:37 13:57:59 27° 70° (ENE) 14:02:21 435.225
UKube-1 27 May 13:56:17 13:59:26 20° 97° (E) 14:02:37 .
O/OREOS (USA 219) 27 May 14:04:17 14:07:35 20° 65° (ENE) 14:10:53 437.305
DX 1 27 May 14:04:57 14:09:02 41° 100° (E) 14:13:07 434.975-435.025
Oscar 19 27 May 14:08:05 14:13:14 69° 75° (ENE) 14:18:25 437.125/150
BUGSAT 1 27 May 14:14:14 14:17:30 24° 262° (W) 14:20:48 437.445
50 SAT 27 May 14:30:35 14:33:45 38° 284° (WNW) 14:36:54 437.505
YUBILEINY 27 May 14:56:13 15:02:42 23° 276° (W) 15:09:12 435.215
SPROUT 27 May 14:57:56 14:59:39 12° 291° (WNW) 15:01:22 437.525
AO-85 27 May 15:00:14 15:04:21 60° 245° (WSW) 15:08:44 145.980
AO-7 27 May 15:07:30 15:14:18 29° 64° (ENE) 15:21:05 .
ITAMSAT 1 27 May 15:13:21 15:17:00 20° 69° (ENE) 15:20:40 435.822/435.867
BEESAT 2 27 May 15:17:18 15:20:07 18° 56° (ENE) 15:22:54 435.950
BEESAT 27 May 15:26:09 15:29:12 17° 96° (E) 15:32:15 436.000
UKube-1 27 May 15:31:55 15:35:20 23° 288° (WNW) 15:38:44 .
Gurwin Techsat 1B 27 May 15:33:19 15:37:45 27° 262° (W) 15:42:13 435.225
BEESAT 3 27 May 15:34:23 15:38:23 84° 244° (WSW) 15:42:18 437.485
DX 1 27 May 15:43:08 15:44:47 12° 292° (WNW) 15:46:27 434.975-435.025
O/OREOS (USA 219) 27 May 15:43:12 15:46:52 25° 258° (WSW) 15:50:32 437.305
ITUPSAT 1 27 May 16:29:22 16:34:12 87° 283° (WNW) 16:39:00 437.325
MOZHAYETS 4 27 May 16:35:50 16:40:25 60° 101° (E) 16:44:58
NO-84 27 May 16:42:49 16:45:52 26° 45° (NE) 16:48:42 435.350 FM
ITAMSAT 1 27 May 16:51:28 16:56:09 35° 261° (W) 17:00:51 435.822/435.867
BEESAT 2 27 May 16:54:26 16:57:48 26° 249° (WSW) 17:01:07 435.950
AO-7 27 May 16:58:41 17:06:36 49° 257° (WSW) 17:14:35 .
BEESAT 27 May 17:02:39 17:06:58 35° 287° (WNW) 17:11:18 436.000
KKS-1 27 May 17:22:25 17:25:56 23° 97° (E) 17:29:27 437.445
CUBESAT XI-V 27 May 17:24:51 17:28:58 32° 98° (E) 17:33:03 437.345
STARS 27 May 17:50:42 17:53:50 19° 97° (E) 17:56:59 437.465
LilacSat-2 27 May 18:08:58 18:11:32 17° 72° (ENE) 18:14:06 437.200
NO-84 27 May 18:21:13 18:23:06 14° 241° (WSW) 18:24:54 435.350 FM
DOVE 4 27 May 18:35:04 18:39:49 85° 76° (ENE) 18:44:17 437.250
XW-2D 27 May 18:40:44 18:44:23 47° 76° (ENE) 18:48:03 145.860 - 145.880
Tancredo 1 27 May 18:43:27 18:45:29 16° 126° (SE) 18:47:30 437.200
XW-2B 27 May 18:48:37 18:52:21 59° 77° (ENE) 18:56:07 145.730 - 145.750
CUTE-I 27 May 18:53:41 18:58:54 62° 75° (ENE) 19:04:08 437.470
NUDT-PHONESAT 27 May 18:56:05 18:59:43 55° 76° (ENE) 19:03:22 437.300
KKS-1 27 May 18:58:54 19:02:18 22° 289° (WNW) 19:05:42 437.445
XW-2F 27 May 19:00:21 19:04:07 86° 80° (E) 19:07:57 145.980 - 146.000
XW-2C 27 May 19:02:16 19:06:03 83° 257° (WSW) 19:09:53 145.795 - 145.815
CUBESAT XI-V 27 May 19:03:01 19:06:01 17° 290° (WNW) 19:09:02 437.345
KAITUO 1B 27 May 19:06:03 19:09:47 82° 78° (ENE) 19:13:35 145.475/437.950
HO-68 27 May 19:21:18 19:27:33 34° 68° (ENE) 19:33:49 435.675
PCSat 27 May 19:21:38 19:27:03 86° 109° (ESE) 19:32:29 145.827
ISS 27 May 19:24:39 19:27:38 32° 128° (SE) 19:30:36 437.550
STARS 27 May 19:26:27 19:30:04 26° 288° (WNW) 19:33:41 437.465
LilacSat-2 27 May 19:42:41 19:45:36 21° 264° (W) 19:48:32 437.200
CUTE 1.7 + AOD 2 27 May 20:03:41 20:07:54 61° 77° (ENE) 20:12:08 437.475
AAUSAT CUBESAT 2 27 May 20:12:44 20:15:43 19° 72° (ENE) 20:18:42 437.432
Tancredo 1 27 May 20:18:33 20:21:03 23° 318° (NW) 20:23:35 437.200
AO-73 27 May 20:24:38 20:25:52 11° 69° (ENE) 20:27:07 145.935
ZACube-1 27 May 20:37:28 20:40:26 19° 71° (ENE) 20:43:27 437.345
CUTE-I 27 May 20:37:55 20:39:12 11° 266° (W) 20:40:30 437.470
XW-2A 27 May 20:41:43 20:44:48 35° 261° (W) 20:47:55 145.665 - 145.685
SEEDS 27 May 20:50:45 20:54:53 53° 260° (W) 20:59:02 437.485
STRAND 1 27 May 20:51:45 20:56:55 90° 283° (WNW) 21:02:04 437.568
CUBEBUG 2 27 May 20:54:03 20:58:09 70° 260° (W) 21:02:20 437.445
UWE-3 27 May 21:01:44 21:05:52 79° 77° (ENE) 21:10:06 435.000/436.395/437.385
ISS 27 May 21:02:06 21:04:10 15° 321° (NW) 21:06:14 437.550
HO-68 27 May 21:08:39 21:15:03 35° 261° (W) 21:21:31 435.675
M-CUBED/EXP-1 PRIME 27 May 21:14:26 21:16:13 14° 101° (E) 21:18:00 437.505
Oscar 11 27 May 21:29:10 21:33:26 63° 77° (ENE) 21:37:45 .
EO-88 27 May 21:42:26 21:43:28 11° 70° (ENE) 21:44:30 145.990 - 145.960
AAUSAT CUBESAT 2 27 May 21:47:38 21:50:57 23° 263° (W) 21:54:17 437.432
